This is the latest recevied weather packets stored in our database for station/object KK7ISX. If no packets are shown the sender has not sent any weather packets the latest 10 day(s).
| Time | Temp. | Humidity | Pressure | Rain* | Wind** | Luminosity | Snow |
|---|---|---|---|---|---|---|---|
| 1777966202 | 16.67° C | 48% | 1004.7 hPa | 0 mm | - | 0 W/m² | - |
| 1777965897 | 16.67° C | 48% | 1004.6 hPa | 0 mm | - | 0 W/m² | - |
| 1777965594 | 16.67° C | 48% | 1004.8 hPa | 0 mm | - | 0 W/m² | - |
| 1777965290 | 16.67° C | 48% | 1004.7 hPa | 0 mm | - | 0 W/m² | - |
| 1777964988 | 17.78° C | 47% | 1004.7 hPa | 0 mm | - | 0 W/m² | - |
| 1777964684 | 17.78° C | 45% | 1004.6 hPa | 0 mm | - | 0 W/m² | - |
| 1777964380 | 17.78° C | 45% | 1004.6 hPa | 0 mm | - | 0 W/m² | - |
| 1777964077 | 17.78° C | 44% | 1004.5 hPa | 0 mm | - | 0 W/m² | - |
| 1777963773 | 17.78° C | 44% | 1004.5 hPa | 0 mm | - | 0 W/m² | - |
| 1777963471 | 17.78° C | 44% | 1004.5 hPa | 0 mm | - | 0 W/m² | - |
| 1777963169 | 17.78° C | 44% | 1004.4 hPa | 0 mm | - | 0 W/m² | - |
| 1777962865 | 17.78° C | 45% | 1004.5 hPa | 0 mm | - | 0 W/m² | - |
| 1777962562 | 18.33° C | 44% | 1004.4 hPa | 0 mm | - | 0 W/m² | - |
| 1777962259 | 18.89° C | 43% | 1004.4 hPa | 0 mm | - | 0 W/m² | - |
| 1777961955 | 19.44° C | 41% | 1004.5 hPa | 0 mm | - | 0 W/m² | - |
| 1777961654 | 19.44° C | 41% | 1004.1 hPa | 0 mm | - | 0 W/m² | - |
| 1777961351 | 18.89° C | 42% | 1004.6 hPa | 0 mm | - | 0 W/m² | - |
| 1777961048 | 19.44° C | 41% | 1004.3 hPa | 0 mm | - | 0 W/m² | - |
| 1777960744 | 20° C | 41% | 1004.4 hPa | 0 mm | - | 0 W/m² | - |
| 1777960440 | 19.44° C | 40% | 1004.3 hPa | 0 mm | - | 0 W/m² | - |
| 1777960137 | 19.44° C | 41% | 1004.3 hPa | 0 mm | - | 0 W/m² | - |
| 1777959834 | 18.89° C | 42% | 1004.5 hPa | 0 mm | - | 0 W/m² | - |
| 1777959533 | 18.89° C | 43% | 1004.4 hPa | 0 mm | - | 0 W/m² | - |
| 1777959229 | 18.89° C | 42% | 1004.2 hPa | 0 mm | - | 0 W/m² | - |
| 1777958926 | 19.44° C | 42% | 1004.2 hPa | 0 mm | - | 0 W/m² | - |
* Rain latest hour (hover to see other rain measurements)
** Current wind speed in m/s (hover to see current wind gust speed)